CYGFM01 (41887 NORAD) Tracking and Keplerian Element Data

This shows tracking and keplerian element data for the satellite.

Feedback or suggestion? Click here.




ElementValue
Catalog41887
NameCYGFM01
Epoch Orbit8784
Epoch Day198.91700286
Epoch Year2018
RAAN90.0441
Inclination34.9539
Eccentricity0.0017409
Argument of Perigee272.747
Mean Anonmoly87.1249
Mean Motion15.13964955
Decay Rate2.5E-06
L11 41887U 16078D 18198.91700286 .00000250 00000-0 15170-4 0 9995
L22 41887 34.9539 90.0441 0017409 272.7470 87.1249 15.13964955 87847

Live tracking and technical data element details for CYGFM01 (NORAD 41887). CYGFM01 can be tracked NOW for your location showing map with azimuth and elevation plus other details from your city location.

Track the satellite on the map from your city or location and see movement details for azimuth, elevation, latitude, longitude, range, height, and movement on the map or in text.







IsCatalogInMostPopularTable: catalog: 41887, numindb: 77
Update: records affected: 1



GetName: 41887 CYGFM01

Hit Count: updated at: Thu, 19 Jul 2018 21:23:52 GMT